Location: Banios
(43.0451°N, 0.2335°E)
Time: 09:07:48
(UTC+00:00)

A-11 Canister half - Pass Details

Date: 15 May 2021
Orbit: 1527 x 1681 km, 47.3° (Epoch: 22 June)

Event Time Altitude Azimuth Distance (km) Brightness Sun altitude
Rises 16:42:43 0° 290° (WNW) 4,885 12.8 26.0°
Reaches altitude 10° 16:47:12 10° 273° (W) 3,915 13.1 25.2°
Maximum altitude 16:53:11 18° 236° (SW) 3,337 11.8 24.1°
Drops below altitude 10° 16:59:14 10° 198° (SSW) 3,933 11.4 23.0°
Sets 17:03:49 0° 181° (S) 4,916 11.6 22.1°
